C6061 KFMH-KFMH

Flight info

Callsign C6061
Flight time 0h 20m
Altitude 1000
Route KFMH KMVY KFMH
Aircraft H60/M-SDFGRY/C

Departure

Time 2026-05-07 22:14
Airport Cape Cod Coast Guard Air Station (KFMH)

Arrival

Time 2026-05-07 22:34
Airport Cape Cod Coast Guard Air Station (KFMH)
Time Latitude Longitude Altitude Speed Heading
2026-05-07 21:54 41.66529 -70.52078 141 ft 0 kts 354°
2026-05-07 22:10 41.66538 -70.52082 141 ft 5 kts 298°
2026-05-07 22:10 41.66500 -70.52112 142 ft 8 kts 179°
2026-05-07 22:10 41.66468 -70.52110 142 ft 8 kts 165°
2026-05-07 22:10 41.66449 -70.52012 141 ft 7 kts 81°
2026-05-07 22:11 41.66455 -70.51955 140 ft 7 kts 83°
2026-05-07 22:11 41.66462 -70.51863 139 ft 13 kts 84°
2026-05-07 22:11 41.66473 -70.51732 138 ft 16 kts 83°
2026-05-07 22:11 41.66481 -70.51642 137 ft 13 kts 83°
2026-05-07 22:12 41.66495 -70.51555 136 ft 4 kts 118°
2026-05-07 22:12 41.66484 -70.51553 136 ft 0 kts 219°
2026-05-07 22:12 41.66483 -70.51554 153 ft 1 kts 205°
2026-05-07 22:13 41.66327 -70.51620 259 ft 53 kts 201°
2026-05-07 22:13 41.65850 -70.52077 307 ft 106 kts 219°
2026-05-07 22:13 41.65233 -70.52765 390 ft 121 kts 219°
2026-05-07 22:13 41.64560 -70.53467 558 ft 125 kts 219°
2026-05-07 22:14 41.63854 -70.54170 635 ft 131 kts 218°
2026-05-07 22:14 41.63090 -70.54883 713 ft 136 kts 216°
2026-05-07 22:14 41.62290 -70.55570 857 ft 137 kts 214°
2026-05-07 22:14 41.61463 -70.56220 1014 ft 139 kts 214°
2026-05-07 22:15 41.60608 -70.56836 1158 ft 141 kts 211°
2026-05-07 22:15 41.59724 -70.57415 1274 ft 141 kts 209°
2026-05-07 22:15 41.58837 -70.57978 1199 ft 135 kts 212°
2026-05-07 22:15 41.58081 -70.58580 1331 ft 122 kts 216°
2026-05-07 22:16 41.57310 -70.59176 1040 ft 128 kts 214°
2026-05-07 22:16 41.56567 -70.59737 1270 ft 123 kts 214°
2026-05-07 22:16 41.55813 -70.60310 930 ft 122 kts 216°
2026-05-07 22:16 41.55074 -70.60878 763 ft 121 kts 211°
2026-05-07 22:17 41.54349 -70.61399 839 ft 117 kts 213°
2026-05-07 22:17 41.53652 -70.61876 1082 ft 109 kts 213°
2026-05-07 22:17 41.52975 -70.62337 1027 ft 113 kts 214°
2026-05-07 22:17 41.52244 -70.62830 718 ft 122 kts 210°
2026-05-07 22:18 41.51573 -70.63439 740 ft 112 kts 224°
2026-05-07 22:18 41.50427 -70.64908 439 ft 119 kts 227°
2026-05-07 22:18 41.49902 -70.65633 222 ft 124 kts 225°
2026-05-07 22:19 41.49315 -70.66448 200 ft 122 kts 226°
2026-05-07 22:19 41.48717 -70.67263 237 ft 121 kts 226°
2026-05-07 22:19 41.48141 -70.68082 256 ft 118 kts 226°
2026-05-07 22:19 41.47577 -70.68880 261 ft 120 kts 226°
2026-05-07 22:20 41.47012 -70.69675 248 ft 122 kts 226°
2026-05-07 22:20 41.46427 -70.70486 248 ft 122 kts 226°
2026-05-07 22:20 41.45876 -70.71258 252 ft 115 kts 226°
2026-05-07 22:20 41.45306 -70.72065 248 ft 119 kts 226°
2026-05-07 22:21 41.44758 -70.72828 248 ft 117 kts 226°
2026-05-07 22:21 41.44192 -70.73624 251 ft 116 kts 226°
2026-05-07 22:21 41.43637 -70.74415 262 ft 115 kts 226°
2026-05-07 22:21 41.43069 -70.75207 252 ft 116 kts 226°
2026-05-07 22:22 41.42510 -70.75983 252 ft 118 kts 226°
2026-05-07 22:22 41.41952 -70.76761 254 ft 116 kts 226°
2026-05-07 22:22 41.41373 -70.77547 255 ft 121 kts 226°
2026-05-07 22:22 41.40800 -70.78343 251 ft 119 kts 226°
2026-05-07 22:23 41.40224 -70.79142 242 ft 118 kts 226°
2026-05-07 22:23 41.39671 -70.79888 333 ft 110 kts 225°
2026-05-07 22:23 41.39192 -70.80392 201 ft 56 kts 216°
2026-05-07 22:23 41.39099 -70.80531 48 ft 2 kts 212°
2026-05-07 22:24 41.39112 -70.80516 40 ft 2 kts 210°
2026-05-07 22:24 41.39121 -70.80510 87 ft 3 kts 210°
2026-05-07 22:24 41.38832 -70.80358 328 ft 62 kts 32°
2026-05-07 22:24 41.39067 -70.80224 104 ft 35 kts 258°
2026-05-07 22:25 41.39110 -70.80308 44 ft 4 kts 185°
2026-05-07 22:25 41.39100 -70.80304 15 ft 1 kts 186°
2026-05-07 22:25 41.38888 -70.80302 178 ft 84 kts 176°
2026-05-07 22:25 41.38216 -70.79597 204 ft 158 kts 123°
2026-05-07 22:26 41.38291 -70.78110 331 ft 170 kts 75°
2026-05-07 22:26 41.38865 -70.76731 377 ft 172 kts 59°
2026-05-07 22:26 41.39493 -70.75370 509 ft 173 kts 60°
2026-05-07 22:26 41.40206 -70.74048 555 ft 178 kts 52°
2026-05-07 22:27 41.41046 -70.72803 528 ft 182 kts 49°
2026-05-07 22:27 41.41910 -70.71588 471 ft 183 kts 46°
2026-05-07 22:27 41.42767 -70.70332 464 ft 180 kts 52°
2026-05-07 22:27 41.43581 -70.69070 554 ft 182 kts 49°
2026-05-07 22:28 41.44458 -70.67840 516 ft 185 kts 48°
2026-05-07 22:28 41.45374 -70.66573 351 ft 192 kts 47°
2026-05-07 22:28 41.46248 -70.65282 313 ft 183 kts 49°
2026-05-07 22:28 41.47121 -70.64063 319 ft 181 kts 45°
2026-05-07 22:29 41.48047 -70.62902 214 ft 181 kts 43°
2026-05-07 22:29 41.48946 -70.61791 250 ft 173 kts 44°
2026-05-07 22:29 41.49844 -70.60646 266 ft 180 kts 44°
2026-05-07 22:29 41.50750 -70.59509 280 ft 179 kts 44°
2026-05-07 22:30 41.51654 -70.58370 292 ft 176 kts 44°
2026-05-07 22:30 41.52570 -70.57227 296 ft 181 kts 44°
2026-05-07 22:30 41.53471 -70.56066 297 ft 183 kts 44°
2026-05-07 22:30 41.54385 -70.54903 296 ft 182 kts 44°
2026-05-07 22:31 41.55298 -70.53782 293 ft 173 kts 43°
2026-05-07 22:31 41.56166 -70.52754 410 ft 161 kts 43°
2026-05-07 22:31 41.57008 -70.51765 463 ft 167 kts 43°
2026-05-07 22:31 41.57879 -70.50704 371 ft 171 kts 44°
2026-05-07 22:32 41.58764 -70.49691 441 ft 163 kts 41°
2026-05-07 22:32 41.59647 -70.48710 367 ft 165 kts 39°
2026-05-07 22:32 41.60652 -70.47976 399 ft 168 kts 23°
2026-05-07 22:32 41.61741 -70.47500 422 ft 163 kts 14°
2026-05-07 22:33 41.62860 -70.47140 404 ft 166 kts 11°
2026-05-07 22:33 41.63963 -70.46904 529 ft 157 kts
2026-05-07 22:33 41.65058 -70.46878 565 ft 160 kts 352°
2026-05-07 22:33 41.65907 -70.47648 378 ft 144 kts 289°
2026-05-07 22:34 41.65946 -70.48857 450 ft 124 kts 268°
2026-05-07 22:34 41.66310 -70.50005 454 ft 147 kts 289°
2026-05-07 22:34 41.66518 -70.51222 249 ft 98 kts 258°
2026-05-07 22:34 41.66487 -70.51550 138 ft 8 kts 255°
2026-05-07 22:35 41.66473 -70.51712 138 ft 28 kts 265°
2026-05-07 22:35 41.66448 -70.52026 141 ft 31 kts 272°
2026-05-07 22:35 41.66472 -70.52185 143 ft 0 kts 281°